Time,TemperatureF,DewpointF,PressureIn,WindDirection,WindDirectionDegrees,WindSpeedMPH,WindSpeedGustMPH,Humidity,HourlyPrecipIn,Conditions,Clouds,dailyrainin,SoftwareType,DateUTC
2013-03-04 00:04:00,28.2,26.8,29.88,West,280,0.0,0.0,94,0.00,,,0.00,meteohub,2013-03-04 07:04:00,
2013-03-04 00:09:00,28.0,26.6,29.88,West,280,0.0,0.0,94,0.00,,,0.00,meteohub,2013-03-04 07:09:00,
2013-03-04 00:14:00,28.0,26.6,29.88,West,280,0.0,0.0,94,0.00,,,0.00,meteohub,2013-03-04 07:14:00,
2013-03-04 00:19:00,28.0,26.6,29.87,West,280,0.0,0.0,94,0.00,,,0.00,meteohub,2013-03-04 07:19:00,
2013-03-04 00:24:00,28.0,26.6,29.87,South,172,0.0,0.0,94,0.00,,,0.00,meteohub,2013-03-04 07:24:00,
2013-03-04 00:29:00,28.0,26.6,29.87,SSW,196,0.0,0.0,94,0.00,,,0.00,meteohub,2013-03-04 07:29:00,
2013-03-04 00:34:00,28.0,26.1,29.87,SW,215,0.0,0.0,92,0.00,,,0.00,meteohub,2013-03-04 07:34:00,
2013-03-04 00:39:00,28.0,26.1,29.87,SW,222,0.0,0.0,92,0.00,,,0.00,meteohub,2013-03-04 07:39:00,
2013-03-04 00:45:00,28.0,26.1,29.87,SE,146,0.0,0.0,92,0.00,,,0.00,meteohub,2013-03-04 07:45:00,
2013-03-04 00:50:00,28.0,26.1,29.87,SSE,156,0.0,0.0,92,0.00,,,0.00,meteohub,2013-03-04 07:50:00,
2013-03-04 00:55:00,28.0,26.1,29.87,SSE,165,0.0,0.0,92,0.00,,,0.00,meteohub,2013-03-04 07:55:00,
2013-03-04 01:00:00,28.0,26.1,29.87,SSW,211,0.0,0.0,92,0.00,,,0.00,meteohub,2013-03-04 08:00:00,
2013-03-04 01:05:00,28.0,26.1,29.86,SSW,211,0.0,0.0,92,0.00,,,0.00,meteohub,2013-03-04 08:05:00,
2013-03-04 01:10:00,28.0,26.1,29.86,SSE,153,0.0,0.0,92,0.00,,,0.00,meteohub,2013-03-04 08:10:00,
2013-03-04 01:15:00,28.0,25.7,29.86,SSE,168,0.0,0.0,91,0.00,,,0.00,meteohub,2013-03-04 08:15:00,
2013-03-04 01:20:00,28.0,26.1,29.87,SSE,168,0.0,0.0,92,0.00,,,0.00,meteohub,2013-03-04 08:20:00,
2013-03-04 01:25:00,28.2,25.9,29.87,SW,216,0.0,0.0,91,0.00,,,0.00,meteohub,2013-03-04 08:25:00,
2013-03-04 01:30:00,28.0,25.7,29.86,SW,236,0.0,0.0,91,0.00,,,0.00,meteohub,2013-03-04 08:30:00,
2013-03-04 01:35:00,28.0,26.1,29.86,SW,236,0.0,0.0,92,0.00,,,0.00,meteohub,2013-03-04 08:35:00,
2013-03-04 01:41:00,28.0,26.1,29.86,SW,236,0.0,0.0,92,0.00,,,0.00,meteohub,2013-03-04 08:41:00,
2013-03-04 01:46:00,28.0,26.1,29.86,South,177,0.0,0.0,92,0.00,,,0.00,meteohub,2013-03-04 08:46:00,
2013-03-04 01:51:00,28.0,26.1,29.86,South,177,0.0,0.0,92,0.00,,,0.00,meteohub,2013-03-04 08:51:00,
2013-03-04 01:56:00,28.0,26.1,29.86,South,177,0.0,0.0,92,0.00,,,0.00,meteohub,2013-03-04 08:56:00,
2013-03-04 02:01:00,28.0,26.1,29.86,South,177,0.0,0.0,92,0.00,,,0.00,meteohub,2013-03-04 09:01:00,
2013-03-04 02:06:00,28.0,26.2,29.86,West,271,0.0,0.0,93,0.00,,,0.00,meteohub,2013-03-04 09:06:00,
2013-03-04 02:11:00,27.9,26.1,29.85,West,271,0.0,0.0,93,0.00,,,0.00,meteohub,2013-03-04 09:11:00,
2013-03-04 02:16:00,27.9,26.1,29.85,West,271,0.0,0.0,93,0.00,,,0.00,meteohub,2013-03-04 09:16:00,
2013-03-04 02:21:00,27.9,26.1,29.85,SW,221,0.0,0.0,93,0.00,,,0.00,meteohub,2013-03-04 09:21:00,
2013-03-04 02:26:00,27.9,25.9,29.85,SW,221,0.0,0.0,92,0.00,,,0.00,meteohub,2013-03-04 09:26:00,
2013-03-04 02:31:00,27.9,25.9,29.85,SW,219,0.0,0.0,92,0.00,,,0.00,meteohub,2013-03-04 09:31:00,
2013-03-04 02:37:00,28.0,26.1,29.84,SW,219,0.0,0.0,92,0.00,,,0.00,meteohub,2013-03-04 09:37:00,
2013-03-04 02:42:00,28.0,26.1,29.84,SW,222,0.0,0.0,92,0.00,,,0.00,meteohub,2013-03-04 09:42:00,
2013-03-04 02:47:00,28.0,25.7,29.83,SW,222,0.0,0.0,91,0.00,,,0.00,meteohub,2013-03-04 09:47:00,
2013-03-04 02:52:00,28.0,26.1,29.83,SSW,199,0.0,0.0,92,0.00,,,0.00,meteohub,2013-03-04 09:52:00,
2013-03-04 02:57:00,27.9,25.9,29.83,SE,137,0.0,0.0,92,0.00,,,0.00,meteohub,2013-03-04 09:57:00,
2013-03-04 03:02:00,28.0,26.1,29.83,SE,137,0.0,0.0,92,0.00,,,0.00,meteohub,2013-03-04 10:02:00,
2013-03-04 03:07:00,27.9,25.9,29.83,SSW,194,0.0,0.0,92,0.00,,,0.00,meteohub,2013-03-04 10:07:00,
2013-03-04 03:12:00,27.9,25.5,29.83,South,187,0.0,0.0,91,0.00,,,0.00,meteohub,2013-03-04 10:12:00,
2013-03-04 03:17:00,28.0,25.5,29.83,SSW,194,0.0,0.0,90,0.00,,,0.00,meteohub,2013-03-04 10:17:00,
2013-03-04 03:22:00,28.0,25.7,29.83,SSW,197,0.0,0.0,91,0.00,,,0.00,meteohub,2013-03-04 10:22:00,
2013-03-04 03:27:00,27.9,25.5,29.83,South,177,0.0,0.0,91,0.00,,,0.00,meteohub,2013-03-04 10:27:00,
2013-03-04 03:32:00,27.9,25.5,29.82,South,177,0.0,0.0,91,0.00,,,0.00,meteohub,2013-03-04 10:32:00,
2013-03-04 03:37:00,27.9,25.3,29.83,South,177,0.0,0.0,90,0.00,,,0.00,meteohub,2013-03-04 10:37:00,
2013-03-04 03:42:00,27.9,25.5,29.83,South,177,0.0,0.0,91,0.00,,,0.00,meteohub,2013-03-04 10:42:00,
2013-03-04 03:47:00,27.9,25.5,29.83,South,177,0.0,0.0,91,0.00,,,0.00,meteohub,2013-03-04 10:47:00,
2013-03-04 03:52:00,27.7,25.3,29.83,South,177,0.0,0.0,91,0.00,,,0.00,meteohub,2013-03-04 10:52:00,
2013-03-04 03:57:00,27.7,25.3,29.83,SSW,196,0.0,0.0,91,0.00,,,0.00,meteohub,2013-03-04 10:57:00,
2013-03-04 04:02:00,27.7,25.3,29.83,SSW,196,0.0,0.0,91,0.00,,,0.00,meteohub,2013-03-04 11:02:00,
2013-03-04 04:07:00,27.5,25.2,29.82,SSW,196,0.0,0.0,91,0.00,,,0.00,meteohub,2013-03-04 11:07:00,
2013-03-04 04:12:00,27.5,25.5,29.82,SSW,196,0.0,0.0,92,0.00,,,0.00,meteohub,2013-03-04 11:12:00,
2013-03-04 04:17:00,27.3,25.3,29.82,SSW,213,0.0,0.0,92,0.00,,,0.00,meteohub,2013-03-04 11:17:00,
2013-03-04 04:22:00,27.3,25.0,29.81,SSW,213,0.0,0.0,91,0.00,,,0.00,meteohub,2013-03-04 11:22:00,
2013-03-04 04:27:00,27.3,25.3,29.81,SSW,213,0.0,0.0,92,0.00,,,0.00,meteohub,2013-03-04 11:27:00,
2013-03-04 04:32:00,27.3,25.3,29.81,SSW,213,0.0,0.0,92,0.00,,,0.00,meteohub,2013-03-04 11:32:00,
2013-03-04 04:37:00,27.3,25.3,29.81,SSW,213,0.0,0.0,92,0.00,,,0.00,meteohub,2013-03-04 11:37:00,
2013-03-04 04:42:00,27.3,25.3,29.81,SSW,213,0.0,0.0,92,0.00,,,0.00,meteohub,2013-03-04 11:42:00,
2013-03-04 04:47:00,27.1,25.2,29.80,SSW,213,0.0,0.0,92,0.00,,,0.00,meteohub,2013-03-04 11:47:00,
2013-03-04 04:52:00,27.1,25.3,29.80,SSW,213,0.0,0.0,93,0.00,,,0.00,meteohub,2013-03-04 11:52:00,
2013-03-04 04:57:00,27.1,25.3,29.80,SSW,213,0.0,0.0,93,0.00,,,0.00,meteohub,2013-03-04 11:57:00,
2013-03-04 05:02:00,27.1,25.3,29.80,WSW,245,0.0,0.0,93,0.00,,,0.00,meteohub,2013-03-04 12:02:00,
2013-03-04 05:07:00,27.1,25.2,29.80,WSW,246,0.0,0.0,92,0.00,,,0.00,meteohub,2013-03-04 12:07:00,
2013-03-04 05:13:00,27.1,25.3,29.80,WSW,244,0.0,0.0,93,0.00,,,0.00,meteohub,2013-03-04 12:13:00,
2013-03-04 05:18:00,27.1,25.3,29.80,SW,223,0.0,0.0,93,0.00,,,0.00,meteohub,2013-03-04 12:18:00,
2013-03-04 05:23:00,27.0,25.2,29.80,SW,225,0.0,0.0,93,0.00,,,0.00,meteohub,2013-03-04 12:23:00,
2013-03-04 05:28:00,26.6,24.8,29.80,SW,225,0.0,0.0,93,0.00,,,0.00,meteohub,2013-03-04 12:28:00,
2013-03-04 05:33:00,26.4,24.6,29.80,WSW,248,0.0,0.0,93,0.00,,,0.00,meteohub,2013-03-04 12:33:00,
2013-03-04 05:38:00,26.2,24.4,29.80,SSW,213,0.0,0.0,93,0.00,,,0.00,meteohub,2013-03-04 12:38:00,
2013-03-04 05:43:00,26.1,24.3,29.80,WSW,258,0.0,0.0,93,0.00,,,0.00,meteohub,2013-03-04 12:43:00,
2013-03-04 05:48:00,26.1,24.6,29.80,SW,215,0.0,0.0,94,0.00,,,0.00,meteohub,2013-03-04 12:48:00,
2013-03-04 05:53:00,25.9,24.1,29.80,SSW,203,0.0,0.0,93,0.00,,,0.00,meteohub,2013-03-04 12:53:00,
2013-03-04 05:58:00,25.7,24.3,29.81,WSW,237,0.0,0.0,94,0.00,,,0.00,meteohub,2013-03-04 12:58:00,
2013-03-04 06:03:00,25.5,24.1,29.81,WSW,238,0.0,0.0,94,0.00,,,0.00,meteohub,2013-03-04 13:03:00,
2013-03-04 06:08:00,25.3,23.5,29.81,WSW,244,0.0,0.0,93,0.00,,,0.00,meteohub,2013-03-04 13:08:00,
2013-03-04 06:14:00,25.2,23.4,29.81,SSW,209,0.0,0.0,93,0.00,,,0.00,meteohub,2013-03-04 13:14:00,
2013-03-04 06:19:00,25.2,23.4,29.81,SSW,200,0.0,0.0,93,0.00,,,0.00,meteohub,2013-03-04 13:19:00,
2013-03-04 06:24:00,25.0,23.5,29.81,SW,217,0.0,0.0,94,0.00,,,0.00,meteohub,2013-03-04 13:24:00,
2013-03-04 06:29:00,25.0,23.2,29.81,SSW,199,0.0,0.0,93,0.00,,,0.00,meteohub,2013-03-04 13:29:00,
2013-03-04 06:34:00,24.8,23.0,29.81,SW,215,0.0,0.0,93,0.00,,,0.00,meteohub,2013-03-04 13:34:00,
2013-03-04 06:39:00,24.8,23.4,29.82,SW,221,0.0,0.0,94,0.00,,,0.00,meteohub,2013-03-04 13:39:00,
2013-03-04 06:44:00,24.6,23.2,29.81,SW,230,0.0,0.0,94,0.00,,,0.00,meteohub,2013-03-04 13:44:00,
2013-03-04 06:49:00,24.4,22.6,29.81,SSW,209,0.0,0.0,93,0.00,,,0.00,meteohub,2013-03-04 13:49:00,
2013-03-04 06:54:00,24.3,22.5,29.81,SSW,210,0.0,0.0,93,0.00,,,0.00,meteohub,2013-03-04 13:54:00,
2013-03-04 06:59:00,24.1,22.3,29.82,SW,224,0.0,0.0,93,0.00,,,0.00,meteohub,2013-03-04 13:59:00,
2013-03-04 07:04:00,23.9,22.1,29.82,SSW,213,0.0,0.0,93,0.00,,,0.00,meteohub,2013-03-04 14:04:00,
2013-03-04 07:09:00,23.7,21.9,29.82,SSW,213,0.0,0.0,93,0.00,,,0.00,meteohub,2013-03-04 14:09:00,
2013-03-04 07:14:00,23.5,21.6,29.83,SSW,207,0.0,0.0,92,0.00,,,0.00,meteohub,2013-03-04 14:14:00,
2013-03-04 07:19:00,23.5,21.6,29.83,SSW,198,0.0,0.0,92,0.00,,,0.00,meteohub,2013-03-04 14:19:00,
2013-03-04 07:25:00,23.4,21.6,29.83,WSW,238,0.0,0.0,93,0.00,,,0.00,meteohub,2013-03-04 14:25:00,
2013-03-04 07:30:00,23.4,21.6,29.83,WSW,240,0.0,0.0,93,0.00,,,0.00,meteohub,2013-03-04 14:30:00,
2013-03-04 07:35:00,23.4,21.6,29.83,SW,215,0.0,0.0,93,0.00,,,0.00,meteohub,2013-03-04 14:35:00,
2013-03-04 07:40:00,23.4,21.6,29.83,SW,234,0.0,0.0,93,0.00,,,0.00,meteohub,2013-03-04 14:40:00,
2013-03-04 07:45:00,23.4,21.6,29.84,SW,230,0.0,0.0,93,0.00,,,0.00,meteohub,2013-03-04 14:45:00,
2013-03-04 07:50:00,23.4,21.6,29.83,WSW,247,0.0,0.0,93,0.00,,,0.00,meteohub,2013-03-04 14:50:00,
2013-03-04 07:55:00,23.5,21.7,29.83,West,273,0.0,0.0,93,0.00,,,0.00,meteohub,2013-03-04 14:55:00,
2013-03-04 08:00:00,23.7,21.9,29.84,WNW,293,0.0,0.0,93,0.00,,,0.00,meteohub,2013-03-04 15:00:00,
2013-03-04 08:05:00,23.7,21.7,29.84,West,272,0.0,0.0,92,0.00,,,0.00,meteohub,2013-03-04 15:05:00,
2013-03-04 08:10:00,23.7,21.7,29.84,WNW,300,0.0,0.0,92,0.00,,,0.00,meteohub,2013-03-04 15:10:00,
2013-03-04 08:15:00,23.7,21.7,29.84,WSW,249,0.0,0.0,92,0.00,,,0.00,meteohub,2013-03-04 15:15:00,
2013-03-04 08:20:00,23.9,22.1,29.84,West,264,0.0,0.0,93,0.00,,,0.00,meteohub,2013-03-04 15:20:00,
2013-03-04 08:25:00,24.1,22.3,29.84,West,271,0.0,0.0,93,0.00,,,0.00,meteohub,2013-03-04 15:25:00,
2013-03-04 08:31:00,24.1,22.3,29.85,SW,234,0.0,0.0,93,0.00,,,0.00,meteohub,2013-03-04 15:31:00,
2013-03-04 08:36:00,24.3,22.5,29.85,WNW,284,0.0,0.0,93,0.00,,,0.00,meteohub,2013-03-04 15:36:00,
2013-03-04 08:41:00,24.3,22.3,29.84,West,262,0.0,0.0,92,0.00,,,0.00,meteohub,2013-03-04 15:41:00,
2013-03-04 08:46:00,24.3,22.3,29.84,WNW,286,0.0,0.0,92,0.00,,,0.00,meteohub,2013-03-04 15:46:00,
2013-03-04 08:51:00,24.6,22.6,29.83,WNW,286,0.0,0.0,92,0.00,,,0.00,meteohub,2013-03-04 15:51:00,
2013-03-04 08:56:00,25.0,23.0,29.84,WNW,286,0.0,0.0,92,0.00,,,0.00,meteohub,2013-03-04 15:56:00,
2013-03-04 09:01:00,25.2,22.8,29.84,WNW,293,0.0,0.0,91,0.00,,,0.00,meteohub,2013-03-04 16:01:00,
2013-03-04 09:06:00,25.3,23.0,29.84,West,270,0.0,0.0,91,0.00,,,0.00,meteohub,2013-03-04 16:06:00,
2013-03-04 09:11:00,25.3,22.8,29.84,West,270,0.0,0.0,90,0.00,,,0.00,meteohub,2013-03-04 16:11:00,
2013-03-04 09:16:00,25.9,23.5,29.83,West,270,0.0,0.0,91,0.00,,,0.00,meteohub,2013-03-04 16:16:00,
2013-03-04 09:21:00,26.1,23.5,29.84,WNW,289,2.0,4.0,90,0.00,,,0.00,meteohub,2013-03-04 16:21:00,
2013-03-04 09:27:00,26.1,23.5,29.84,West,260,0.0,4.0,90,0.00,,,0.00,meteohub,2013-03-04 16:27:00,
2013-03-04 09:32:00,26.2,23.7,29.85,NW,309,0.0,4.0,90,0.00,,,0.00,meteohub,2013-03-04 16:32:00,
2013-03-04 09:37:00,26.4,23.9,29.85,West,259,2.0,3.0,90,0.00,,,0.00,meteohub,2013-03-04 16:37:00,
2013-03-04 09:42:00,26.4,23.5,29.84,SW,229,2.0,4.0,89,0.00,,,0.00,meteohub,2013-03-04 16:42:00,
2013-03-04 09:47:00,26.4,23.4,29.85,WSW,253,0.0,4.0,88,0.00,,,0.00,meteohub,2013-03-04 16:47:00,
2013-03-04 09:52:00,26.8,23.7,29.85,North,355,1.0,4.0,88,0.00,,,0.00,meteohub,2013-03-04 16:52:00,
2013-03-04 09:57:00,27.0,23.4,29.86,North,354,3.0,4.0,86,0.00,,,0.00,meteohub,2013-03-04 16:57:00,
2013-03-04 10:02:00,27.1,22.6,29.86,NW,323,3.0,6.0,83,0.00,,,0.00,meteohub,2013-03-04 17:02:00,
2013-03-04 10:07:00,27.3,22.6,29.86,WNW,283,3.0,6.0,82,0.00,,,0.00,meteohub,2013-03-04 17:07:00,
2013-03-04 10:12:00,27.3,22.8,29.86,NW,308,1.0,7.0,83,0.00,,,0.00,meteohub,2013-03-04 17:12:00,
2013-03-04 10:17:00,27.3,22.6,29.85,WNW,294,0.0,7.0,82,0.00,,,0.00,meteohub,2013-03-04 17:17:00,
2013-03-04 10:22:00,27.7,22.8,29.85,NNW,340,1.0,5.0,82,0.00,,,0.00,meteohub,2013-03-04 17:22:00,
2013-03-04 10:27:00,28.2,22.3,29.85,WSW,246,0.0,5.0,78,0.00,,,0.00,meteohub,2013-03-04 17:27:00,
2013-03-04 10:32:00,29.5,23.5,29.85,South,172,1.0,3.0,78,0.00,,,0.00,meteohub,2013-03-04 17:32:00,
2013-03-04 10:37:00,30.9,23.9,29.84,NE,49,6.0,6.0,75,0.00,,,0.00,meteohub,2013-03-04 17:37:00,
2013-03-04 10:42:00,31.3,23.9,29.84,NW,311,3.0,10.0,74,0.00,,,0.00,meteohub,2013-03-04 17:42:00,
2013-03-04 10:47:00,32.0,24.6,29.84,NNW,337,1.0,14.0,74,0.00,,,0.00,meteohub,2013-03-04 17:47:00,
2013-03-04 10:52:00,31.6,23.4,29.84,WNW,295,8.0,14.0,71,0.00,,,0.00,meteohub,2013-03-04 17:52:00,
2013-03-04 10:57:00,31.8,24.4,29.83,NNW,347,4.0,11.0,74,0.00,,,0.00,meteohub,2013-03-04 17:57:00,
2013-03-04 11:02:00,32.5,23.9,29.83,SW,228,6.0,9.0,70,0.00,,,0.00,meteohub,2013-03-04 18:02:00,
2013-03-04 11:07:00,32.9,23.5,29.82,NNE,13,2.0,10.0,68,0.00,,,0.00,meteohub,2013-03-04 18:07:00,
2013-03-04 11:12:00,33.1,24.4,29.82,NW,325,2.0,12.0,70,0.00,,,0.00,meteohub,2013-03-04 18:12:00,
2013-03-04 11:17:00,32.7,23.4,29.82,WSW,242,4.0,14.0,68,0.00,,,0.00,meteohub,2013-03-04 18:17:00,
2013-03-04 11:22:00,32.4,23.0,29.81,WNW,294,7.0,14.0,68,0.01,,,0.01,meteohub,2013-03-04 18:22:00,
2013-03-04 11:28:00,32.5,23.2,29.81,NW,321,10.0,15.0,68,0.02,,,0.02,meteohub,2013-03-04 18:28:00,
2013-03-04 11:29:00,32.7,23.7,29.80,NNW,332,5.0,15.0,69,0.02,,,0.02,meteohub,2013-03-04 18:29:00,
2013-03-04 11:30:00,32.9,23.9,29.80,West,263,2.0,15.0,69,0.02,,,0.02,meteohub,2013-03-04 18:30:00,
2013-03-04 11:33:00,33.4,23.4,29.80,West,260,3.0,15.0,66,0.02,,,0.02,meteohub,2013-03-04 18:33:00,
2013-03-04 11:38:00,33.6,23.5,29.80,NW,324,7.0,15.0,66,0.04,,,0.04,meteohub,2013-03-04 18:38:00,
2013-03-04 11:43:00,33.6,23.2,29.81,WSW,247,11.0,15.0,65,0.05,,,0.05,meteohub,2013-03-04 18:43:00,
2013-03-04 11:48:00,32.4,24.1,29.82,WNW,294,8.0,15.0,71,0.05,,,0.05,meteohub,2013-03-04 18:48:00,
2013-03-04 11:53:00,30.2,24.3,29.82,WNW,292,7.0,19.0,78,0.06,,,0.06,meteohub,2013-03-04 18:53:00,
2013-03-04 11:58:00,29.7,24.6,29.83,North,351,3.0,19.0,81,0.07,,,0.07,meteohub,2013-03-04 18:58:00,
2013-03-04 12:03:00,28.6,24.1,29.83,NW,313,10.0,19.0,83,0.07,,,0.07,meteohub,2013-03-04 19:03:00,
2013-03-04 12:09:00,28.0,23.2,29.83,West,273,11.0,18.0,82,0.08,,,0.08,meteohub,2013-03-04 19:09:00,
2013-03-04 12:14:00,28.8,22.5,29.83,NW,312,9.0,18.0,77,0.08,,,0.08,meteohub,2013-03-04 19:14:00,
2013-03-04 12:19:00,29.7,23.7,29.83,NW,321,9.0,18.0,78,0.08,,,0.09,meteohub,2013-03-04 19:19:00,
2013-03-04 12:24:00,30.0,22.5,29.83,West,259,6.0,17.0,73,0.08,,,0.09,meteohub,2013-03-04 19:24:00,
2013-03-04 12:29:00,28.9,22.3,29.83,WNW,301,11.0,17.0,76,0.08,,,0.10,meteohub,2013-03-04 19:29:00,
2013-03-04 12:34:00,27.1,20.8,29.84,West,263,6.0,17.0,77,0.07,,,0.10,meteohub,2013-03-04 19:34:00,
2013-03-04 12:39:00,25.3,18.9,29.84,NW,304,5.0,17.0,76,0.07,,,0.11,meteohub,2013-03-04 19:39:00,
2013-03-04 12:45:00,24.1,18.0,29.85,West,268,10.0,16.0,77,0.05,,,0.11,meteohub,2013-03-04 19:45:00,
2013-03-04 12:50:00,23.5,18.0,29.85,WNW,291,3.0,16.0,79,0.04,,,0.11,meteohub,2013-03-04 19:50:00,
2013-03-04 12:56:00,23.5,16.5,29.86,NNW,330,7.0,16.0,74,0.04,,,0.11,meteohub,2013-03-04 19:56:00,
2013-03-04 13:01:00,23.0,15.1,29.86,WNW,289,11.0,13.0,71,0.03,,,0.11,meteohub,2013-03-04 20:01:00,
2013-03-04 13:06:00,22.5,15.1,29.87,West,265,5.0,16.0,73,0.04,,,0.12,meteohub,2013-03-04 20:06:00,
2013-03-04 13:11:00,21.4,15.3,29.89,NW,312,4.0,16.0,77,0.04,,,0.12,meteohub,2013-03-04 20:11:00,
2013-03-04 13:16:00,20.7,15.3,29.90,WNW,296,8.0,16.0,79,0.03,,,0.12,meteohub,2013-03-04 20:16:00,
2013-03-04 13:21:00,19.9,14.7,29.90,West,275,5.0,13.0,80,0.02,,,0.12,meteohub,2013-03-04 20:21:00,
2013-03-04 13:26:00,19.9,15.1,29.91,SW,228,5.0,13.0,81,0.02,,,0.12,meteohub,2013-03-04 20:26:00,
2013-03-04 13:31:00,19.2,14.9,29.91,SSW,209,2.0,13.0,83,0.02,,,0.12,meteohub,2013-03-04 20:31:00,
2013-03-04 13:36:00,18.7,14.4,29.93,WSW,257,1.0,12.0,83,0.01,,,0.12,meteohub,2013-03-04 20:36:00,
2013-03-04 13:41:00,18.0,14.0,29.94,WSW,246,5.0,12.0,84,0.01,,,0.12,meteohub,2013-03-04 20:41:00,
2013-03-04 13:47:00,17.2,13.5,29.95,WSW,245,0.0,12.0,85,0.01,,,0.12,meteohub,2013-03-04 20:47:00,
2013-03-04 13:52:00,17.1,13.6,29.95,NNW,339,3.0,11.0,86,0.01,,,0.12,meteohub,2013-03-04 20:52:00,
2013-03-04 13:57:00,17.2,13.8,29.96,SW,233,2.0,10.0,86,0.01,,,0.12,meteohub,2013-03-04 20:57:00,
2013-03-04 14:02:00,17.1,13.3,29.97,WSW,244,3.0,10.0,85,0.01,,,0.12,meteohub,2013-03-04 21:02:00,
2013-03-04 14:07:00,16.9,13.5,29.98,WNW,292,2.0,9.0,86,0.00,,,0.12,meteohub,2013-03-04 21:07:00,
2013-03-04 14:12:00,17.1,13.6,29.99,West,276,5.0,9.0,86,0.00,,,0.12,meteohub,2013-03-04 21:12:00,
2013-03-04 14:17:00,17.4,13.5,29.99,West,281,5.0,9.0,84,0.00,,,0.12,meteohub,2013-03-04 21:17:00,
2013-03-04 14:22:00,18.0,13.6,30.00,SW,234,2.0,11.0,83,0.00,,,0.12,meteohub,2013-03-04 21:22:00,
2013-03-04 14:27:00,18.1,13.1,30.01,West,261,3.0,11.0,80,0.00,,,0.12,meteohub,2013-03-04 21:27:00,
2013-03-04 14:32:00,18.7,13.3,30.01,NNW,330,2.0,11.0,79,0.00,,,0.12,meteohub,2013-03-04 21:32:00,
2013-03-04 14:37:00,18.9,13.5,30.01,NNW,340,1.0,10.0,79,0.00,,,0.12,meteohub,2013-03-04 21:37:00,
2013-03-04 14:42:00,19.2,13.3,30.01,SSW,200,1.0,7.0,77,0.00,,,0.12,meteohub,2013-03-04 21:42:00,
2013-03-04 14:47:00,19.8,13.5,30.01,East,96,0.0,3.0,76,0.00,,,0.12,meteohub,2013-03-04 21:47:00,
2013-03-04 14:52:00,19.6,12.9,30.01,SW,235,2.0,6.0,75,0.00,,,0.12,meteohub,2013-03-04 21:52:00,
2013-03-04 14:57:00,18.9,10.8,30.02,WNW,290,1.0,7.0,70,0.00,,,0.12,meteohub,2013-03-04 21:57:00,
2013-03-04 15:02:00,18.7,11.1,30.03,NNE,30,2.0,7.0,72,0.00,,,0.12,meteohub,2013-03-04 22:02:00,
2013-03-04 15:07:00,18.7,11.5,30.03,West,272,5.0,7.0,73,0.00,,,0.12,meteohub,2013-03-04 22:07:00,
2013-03-04 15:12:00,18.9,12.2,30.03,SW,223,2.0,7.0,75,0.00,,,0.12,meteohub,2013-03-04 22:12:00,
2013-03-04 15:17:00,18.7,12.4,30.04,SW,229,4.0,9.0,76,0.00,,,0.12,meteohub,2013-03-04 22:17:00,
2013-03-04 15:22:00,18.3,12.6,30.04,West,281,3.0,9.0,78,0.00,,,0.12,meteohub,2013-03-04 22:22:00,
2013-03-04 15:27:00,18.3,12.0,30.05,SSW,213,3.0,9.0,76,0.00,,,0.12,meteohub,2013-03-04 22:27:00,
2013-03-04 15:32:00,18.1,11.5,30.05,West,268,3.0,14.0,75,0.00,,,0.12,meteohub,2013-03-04 22:32:00,
2013-03-04 15:37:00,18.3,12.0,30.06,West,259,2.0,14.0,76,0.00,,,0.12,meteohub,2013-03-04 22:37:00,
2013-03-04 15:42:00,18.1,11.5,30.06,WNW,290,2.0,8.0,75,0.00,,,0.12,meteohub,2013-03-04 22:42:00,
2013-03-04 15:47:00,18.0,11.3,30.07,WSW,246,2.0,11.0,75,0.00,,,0.12,meteohub,2013-03-04 22:47:00,
2013-03-04 15:52:00,17.8,11.1,30.08,SW,226,7.0,11.0,75,0.00,,,0.12,meteohub,2013-03-04 22:52:00,
2013-03-04 15:57:00,17.6,10.0,30.08,SW,228,9.0,11.0,72,0.00,,,0.12,meteohub,2013-03-04 22:57:00,
2013-03-04 16:02:00,17.2,9.1,30.09,SW,236,11.0,11.0,70,0.00,,,0.12,meteohub,2013-03-04 23:02:00,
2013-03-04 16:07:00,17.2,8.8,30.09,WNW,284,5.0,12.0,69,0.00,,,0.12,meteohub,2013-03-04 23:07:00,
2013-03-04 16:12:00,17.4,8.6,30.10,West,263,10.0,16.0,68,0.00,,,0.12,meteohub,2013-03-04 23:12:00,
2013-03-04 16:17:00,17.6,8.2,30.11,NW,326,6.0,16.0,66,0.00,,,0.12,meteohub,2013-03-04 23:17:00,
2013-03-04 16:22:00,17.4,8.1,30.12,West,271,2.0,12.0,66,0.00,,,0.12,meteohub,2013-03-04 23:22:00,
2013-03-04 16:27:00,17.1,8.1,30.13,WNW,282,2.0,15.0,67,0.00,,,0.12,meteohub,2013-03-04 23:27:00,
2013-03-04 16:32:00,16.9,8.2,30.14,SW,223,3.0,15.0,68,0.00,,,0.12,meteohub,2013-03-04 23:32:00,
2013-03-04 16:37:00,16.3,8.2,30.14,North,359,13.0,19.0,70,0.00,,,0.12,meteohub,2013-03-04 23:37:00,
2013-03-04 16:42:00,16.2,8.1,30.15,WNW,298,7.0,20.0,70,0.00,,,0.12,meteohub,2013-03-04 23:42:00,
2013-03-04 16:48:00,16.2,8.1,30.14,WNW,299,8.0,20.0,70,0.00,,,0.12,meteohub,2013-03-04 23:48:00,
2013-03-04 16:53:00,16.2,7.7,30.16,NW,316,6.0,20.0,69,0.00,,,0.12,meteohub,2013-03-04 23:53:00,
2013-03-04 16:58:00,16.2,8.4,30.16,NNW,339,14.0,15.0,71,0.00,,,0.12,meteohub,2013-03-04 23:58:00,
2013-03-04 17:03:00,16.0,7.9,30.16,NW,305,2.0,15.0,70,0.00,,,0.12,meteohub,2013-03-05 00:03:00,
2013-03-04 17:08:00,16.0,8.2,30.17,NNW,330,3.0,15.0,71,0.00,,,0.00,meteohub,2013-03-05 00:08:00,
2013-03-04 17:13:00,16.0,7.9,30.17,NW,319,5.0,14.0,70,0.00,,,0.00,meteohub,2013-03-05 00:13:00,
2013-03-04 17:18:00,15.8,7.2,30.18,WNW,286,4.0,11.0,68,0.00,,,0.00,meteohub,2013-03-05 00:18:00,
2013-03-04 17:23:00,15.6,6.6,30.19,WNW,297,8.0,11.0,67,0.00,,,0.00,meteohub,2013-03-05 00:23:00,
2013-03-04 17:28:00,15.4,6.4,30.20,West,271,5.0,14.0,67,0.00,,,0.00,meteohub,2013-03-05 00:28:00,
2013-03-04 17:34:00,15.4,6.1,30.21,NNE,18,3.0,15.0,66,0.00,,,0.00,meteohub,2013-03-05 00:34:00,
2013-03-04 17:39:00,15.4,6.4,30.21,WNW,288,1.0,15.0,67,0.00,,,0.00,meteohub,2013-03-05 00:39:00,
2013-03-04 17:44:00,15.3,5.9,30.21,WNW,296,2.0,7.0,66,0.00,,,0.00,meteohub,2013-03-05 00:44:00,
2013-03-04 17:49:00,15.1,5.7,30.22,West,259,3.0,7.0,66,0.00,,,0.00,meteohub,2013-03-05 00:49:00,
2013-03-04 17:54:00,14.7,5.2,30.22,NW,307,5.0,7.0,65,0.00,,,0.00,meteohub,2013-03-05 00:54:00,
2013-03-04 17:59:00,14.7,5.2,30.23,NNE,12,3.0,8.0,65,0.00,,,0.00,meteohub,2013-03-05 00:59:00,
2013-03-04 18:04:00,14.5,5.0,30.24,SW,233,3.0,8.0,65,0.00,,,0.00,meteohub,2013-03-05 01:04:00,
2013-03-04 18:09:00,14.2,4.6,30.24,NW,322,7.0,8.0,65,0.00,,,0.00,meteohub,2013-03-05 01:09:00,
2013-03-04 18:14:00,14.0,4.5,30.25,WNW,294,3.0,10.0,65,0.00,,,0.00,meteohub,2013-03-05 01:14:00,
2013-03-04 18:19:00,13.8,4.3,30.26,West,269,2.0,17.0,65,0.00,,,0.00,meteohub,2013-03-05 01:19:00,
2013-03-04 18:24:00,13.5,4.3,30.26,NW,308,2.0,17.0,66,0.00,,,0.00,meteohub,2013-03-05 01:24:00,
2013-03-04 18:30:00,13.3,4.1,30.27,WNW,290,1.0,10.0,66,0.00,,,0.00,meteohub,2013-03-05 01:30:00,
2013-03-04 18:35:00,13.3,4.5,30.27,West,272,2.0,8.0,67,0.00,,,0.00,meteohub,2013-03-05 01:35:00,
2013-03-04 18:40:00,12.9,4.1,30.28,NNW,328,2.0,10.0,67,0.00,,,0.00,meteohub,2013-03-05 01:40:00,
2013-03-04 18:45:00,12.9,4.3,30.29,SSW,208,0.0,10.0,68,0.00,,,0.00,meteohub,2013-03-05 01:45:00,
2013-03-04 18:50:00,12.7,4.5,30.29,NW,326,0.0,10.0,69,0.00,,,0.00,meteohub,2013-03-05 01:50:00,
2013-03-04 18:55:00,12.6,4.3,30.29,WSW,239,2.0,6.0,69,0.00,,,0.00,meteohub,2013-03-05 01:55:00,
2013-03-04 19:00:00,12.4,4.1,30.30,WSW,251,2.0,6.0,69,0.00,,,0.00,meteohub,2013-03-05 02:00:00,
2013-03-04 19:05:00,12.0,3.6,30.30,SW,236,1.0,6.0,68,0.00,,,0.00,meteohub,2013-03-05 02:05:00,
2013-03-04 19:10:00,12.0,3.6,30.31,WNW,299,1.0,8.0,68,0.00,,,0.00,meteohub,2013-03-05 02:10:00,
2013-03-04 19:16:00,12.0,3.6,30.31,WNW,296,3.0,8.0,68,0.00,,,0.00,meteohub,2013-03-05 02:16:00,
2013-03-04 19:21:00,12.0,3.6,30.32,West,278,5.0,8.0,68,0.00,,,0.00,meteohub,2013-03-05 02:21:00,
2013-03-04 19:26:00,12.0,3.6,30.33,West,281,2.0,10.0,68,0.00,,,0.00,meteohub,2013-03-05 02:26:00,
2013-03-04 19:31:00,11.8,3.4,30.34,West,281,4.0,10.0,68,0.00,,,0.00,meteohub,2013-03-05 02:31:00,
2013-03-04 19:36:00,11.8,3.6,30.34,WNW,290,3.0,10.0,69,0.00,,,0.00,meteohub,2013-03-05 02:36:00,
2013-03-04 19:41:00,11.7,3.4,30.34,WNW,298,2.0,8.0,69,0.00,,,0.00,meteohub,2013-03-05 02:41:00,
2013-03-04 19:46:00,11.7,3.4,30.34,NW,314,1.0,8.0,69,0.00,,,0.00,meteohub,2013-03-05 02:46:00,
2013-03-04 19:51:00,11.5,3.9,30.35,WNW,292,0.0,8.0,71,0.00,,,0.00,meteohub,2013-03-05 02:51:00,
2013-03-04 19:56:00,11.1,3.6,30.35,North,11,0.0,5.0,71,0.00,,,0.00,meteohub,2013-03-05 02:56:00,
2013-03-04 20:02:00,10.8,3.6,30.36,NNW,334,2.0,6.0,72,0.00,,,0.00,meteohub,2013-03-05 03:02:00,
2013-03-04 20:07:00,10.4,3.2,30.36,SE,136,2.0,6.0,72,0.00,,,0.00,meteohub,2013-03-05 03:07:00,
2013-03-04 20:12:00,9.9,2.7,30.37,ESE,117,1.0,6.0,72,0.00,,,0.00,meteohub,2013-03-05 03:12:00,
2013-03-04 20:17:00,9.0,2.1,30.38,SE,138,4.0,4.0,73,0.00,,,0.00,meteohub,2013-03-05 03:17:00,
2013-03-04 20:22:00,8.2,1.8,30.38,SE,126,4.0,8.0,74,0.00,,,0.00,meteohub,2013-03-05 03:22:00,
2013-03-04 20:27:00,7.5,1.0,30.38,ESE,111,4.0,8.0,74,0.00,,,0.00,meteohub,2013-03-05 03:27:00,
2013-03-04 20:32:00,7.2,0.9,30.38,SE,133,2.0,8.0,75,0.00,,,0.00,meteohub,2013-03-05 03:32:00,
2013-03-04 20:37:00,6.6,0.7,30.38,East,96,1.0,6.0,76,0.00,,,0.00,meteohub,2013-03-05 03:37:00,
2013-03-04 20:42:00,6.1,-0.2,30.39,ESE,104,1.0,6.0,75,0.00,,,0.00,meteohub,2013-03-05 03:42:00,
2013-03-04 20:47:00,5.4,-0.2,30.39,ESE,103,2.0,6.0,77,0.00,,,0.00,meteohub,2013-03-05 03:47:00,
2013-03-04 20:52:00,4.8,-0.8,30.40,ESE,123,8.0,8.0,77,0.00,,,0.00,meteohub,2013-03-05 03:52:00,
2013-03-04 20:57:00,4.5,-0.9,30.40,SE,129,3.0,9.0,78,0.00,,,0.00,meteohub,2013-03-05 03:57:00,
2013-03-04 21:02:00,4.3,-1.1,30.41,SE,134,2.0,9.0,78,0.00,,,0.00,meteohub,2013-03-05 04:02:00,
2013-03-04 21:07:00,4.1,-0.9,30.41,ESE,113,0.0,9.0,79,0.00,,,0.00,meteohub,2013-03-05 04:07:00,
2013-03-04 21:12:00,3.9,-1.1,30.42,ESE,113,1.0,9.0,79,0.00,,,0.00,meteohub,2013-03-05 04:12:00,
2013-03-04 21:18:00,3.6,-1.5,30.43,SE,128,1.0,6.0,79,0.00,,,0.00,meteohub,2013-03-05 04:18:00,
2013-03-04 21:23:00,3.4,-1.7,30.43,ESE,119,1.0,3.0,79,0.00,,,0.00,meteohub,2013-03-05 04:23:00,
2013-03-04 21:28:00,3.2,-1.8,30.43,ESE,110,2.0,5.0,79,0.00,,,0.00,meteohub,2013-03-05 04:28:00,
2013-03-04 21:33:00,3.0,-2.0,30.43,ESE,105,2.0,5.0,79,0.00,,,0.00,meteohub,2013-03-05 04:33:00,
2013-03-04 21:38:00,2.8,-2.2,30.43,East,97,4.0,5.0,79,0.00,,,0.00,meteohub,2013-03-05 04:38:00,
2013-03-04 21:43:00,2.7,-2.4,30.43,East,92,4.0,5.0,79,0.00,,,0.00,meteohub,2013-03-05 04:43:00,
2013-03-04 21:48:00,2.5,-2.6,30.44,East,84,3.0,7.0,79,0.00,,,0.00,meteohub,2013-03-05 04:48:00,
2013-03-04 21:53:00,2.5,-2.6,30.44,ESE,119,5.0,7.0,79,0.00,,,0.00,meteohub,2013-03-05 04:53:00,
2013-03-04 21:58:00,2.3,-2.7,30.44,ESE,123,2.0,7.0,79,0.00,,,0.00,meteohub,2013-03-05 04:58:00,
2013-03-04 22:00:00,2.3,-2.7,30.44,ESE,105,2.0,6.0,79,0.00,,,0.00,meteohub,2013-03-05 05:00:00,
2013-03-04 22:01:00,2.3,-2.7,30.44,ESE,105,3.0,6.0,79,0.00,,,0.00,meteohub,2013-03-05 05:01:00,
2013-03-04 22:02:00,2.3,-2.7,30.44,ESE,103,3.0,6.0,79,0.00,,,0.00,meteohub,2013-03-05 05:02:00,
2013-03-04 22:07:00,2.1,-2.9,30.45,ESE,109,2.0,6.0,79,0.00,,,0.00,meteohub,2013-03-05 05:07:00,
2013-03-04 22:12:00,2.1,-2.9,30.45,ESE,119,2.0,6.0,79,0.00,,,0.00,meteohub,2013-03-05 05:12:00,
2013-03-04 22:17:00,1.9,-3.1,30.45,ESE,109,3.0,5.0,79,0.00,,,0.00,meteohub,2013-03-05 05:17:00,
2013-03-04 22:22:00,1.9,-2.7,30.45,ESE,105,3.0,5.0,80,0.00,,,0.00,meteohub,2013-03-05 05:22:00,
2013-03-04 22:27:00,1.8,-3.3,30.45,ESE,118,4.0,5.0,79,0.00,,,0.00,meteohub,2013-03-05 05:27:00,
2013-03-04 22:32:00,1.8,-3.3,30.46,East,89,2.0,8.0,79,0.00,,,0.00,meteohub,2013-03-05 05:32:00,
2013-03-04 22:37:00,1.6,-3.5,30.46,SE,127,6.0,8.0,79,0.00,,,0.00,meteohub,2013-03-05 05:37:00,
2013-03-04 22:42:00,1.6,-3.1,30.46,ESE,105,1.0,8.0,80,0.00,,,0.00,meteohub,2013-03-05 05:42:00,
2013-03-04 22:47:00,1.8,-2.4,30.47,East,90,1.0,7.0,82,0.00,,,0.00,meteohub,2013-03-05 05:47:00,
2013-03-04 22:52:00,1.8,-2.4,30.47,East,84,1.0,7.0,82,0.00,,,0.00,meteohub,2013-03-05 05:52:00,
2013-03-04 22:57:00,1.8,-3.3,30.47,ENE,57,2.0,3.0,79,0.00,,,0.00,meteohub,2013-03-05 05:57:00,
2013-03-04 23:02:00,1.6,-3.5,30.47,ENE,66,2.0,4.0,79,0.00,,,0.00,meteohub,2013-03-05 06:02:00,
2013-03-04 23:07:00,1.6,-3.1,30.48,NE,53,3.0,4.0,80,0.00,,,0.00,meteohub,2013-03-05 06:07:00,
2013-03-04 23:12:00,1.6,-2.9,30.48,East,80,2.0,5.0,81,0.00,,,0.00,meteohub,2013-03-05 06:12:00,
2013-03-04 23:17:00,1.6,-2.6,30.48,NE,55,2.0,5.0,82,0.00,,,0.00,meteohub,2013-03-05 06:17:00,
2013-03-04 23:22:00,1.4,-3.1,30.48,ENE,72,0.0,5.0,81,0.00,,,0.00,meteohub,2013-03-05 06:22:00,
2013-03-04 23:27:00,1.2,-3.3,30.48,ENE,74,2.0,5.0,81,0.00,,,0.00,meteohub,2013-03-05 06:27:00,
2013-03-04 23:32:00,1.0,-3.5,30.48,NE,55,2.0,5.0,81,0.00,,,0.00,meteohub,2013-03-05 06:32:00,
2013-03-04 23:37:00,0.9,-3.6,30.48,ENE,59,2.0,5.0,81,0.00,,,0.00,meteohub,2013-03-05 06:37:00,
2013-03-04 23:42:00,0.7,-4.0,30.49,East,98,1.0,5.0,80,0.00,,,0.00,meteohub,2013-03-05 06:42:00,
2013-03-04 23:47:00,0.1,-4.5,30.49,ESE,105,1.0,5.0,80,0.00,,,0.00,meteohub,2013-03-05 06:47:00,
2013-03-04 23:52:00,-0.2,-4.7,30.49,ESE,109,2.0,5.0,81,0.00,,,0.00,meteohub,2013-03-05 06:52:00,
2013-03-04 23:57:00,-0.6,-4.7,30.49,ENE,68,1.0,5.0,82,0.00,,,0.00,meteohub,2013-03-05 06:57:00,